Tracking 30995 objects as of 5-Jul-2025
HD Live streaming from Space Station
objects crossing your sky now

THORAD AGENA D DEB

Track THORAD AGENA D DEB now!
10-day predictions


NORAD ID: 6216
Int'l Code: 1970-025NE
Perigee: 612.3 km
Apogee: 926.5 km
Inclination: 99.0 °
Period: 100.1 minutes
Semi major axis: 7140 km
RCS: 0.0784 m2 (small)
Launch date: April 8, 1970
Source: United States (US)
Launch site: AIR FORCE WESTERN TEST RANGE (AFWTR)

Note: This is SATELLITE DEBRIS
Your satellite tracking list
SL-16 DEB
Track 1 satellite(s)




NASA's NSSDC Master Catalog

Two Line Element Set (TLE):
1 06216U 70025NE  25186.60611071  .00002424  00000-0  60760-3 0  9997
2 06216  99.0369  64.9833 0219992  15.6734 345.1121 14.38863985826204
Source of the keplerian elements: AFSPC